Regional Weather Roundup
Issued by NWS

Home | Current Version | Previous Version | Graphics & Text | Print | Product List | Glossary On
Versions: 1 2 3 4 5 6 7 8 9 10 11 12 13 14 15 16 17 18 19 20 21 22 23 24 25 26 27 28 29 30 31 32 33 34 35 36 37 38 39 40 41 42 43 44 45 46 47 48 49 50
000
ASUS45 KBOI 170910
RWRID
WEATHER ROUNDUP FOR IDAHO
NATIONAL WEATHER SERVICE BOISE ID
200 AM MST WED DEC 17 2014

NOTE: "FAIR" INDICATES FEW OR NO CLOUDS BELOW 12000 FEET
WITH NO SIGNIFICANT WEATHER AND/OR OBSTRUCTIONS TO VISIBILITY

IDZ012-014-171000-
SOUTHWEST IDAHO


CITY           SKY/WX    TMP DP  RH WIND       PRES   REMARKS
BOISE          CLEAR     34  29  82 CALM      29.97F
CALDWELL       CLEAR     32  25  74 NE6       30.00S WCI  26
MOUNTAIN HOME  CLEAR     32  30  93 E8        29.98S WCI  25
$$

IDZ016-017-171000-
SOUTHCENTRAL IDAHO


CITY           SKY/WX    TMP DP  RH WIND       PRES   REMARKS
BURLEY         CLEAR     24  23  96 CALM      29.98S FOG
JEROME         CLOUDY    32  28  85 NE12      29.98S WCI  23
TWIN FALLS     CLEAR     26  22  84 SE5       29.97F WCI  20
$$

IDZ019>023-171000-
SOUTHEAST IDAHO


CITY           SKY/WX    TMP DP  RH WIND       PRES   REMARKS
IDAHO FALLS    CLOUDY    32  31  96 CALM      30.00S FOG
POCATELLO      CLOUDY    30  30 100 NW5       30.00S FOG     WCI  25
REXBURG        CLOUDY    30  30 100 W3        30.00S FOG
$$

IDZ006-010-011-018-031-032-171000-
CENTRAL IDAHO MOUNTAINS


CITY           SKY/WX    TMP DP  RH WIND       PRES   REMARKS
MCCALL         CLOUDY    29  27  92 CALM      29.92S
HAILEY         CLOUDY    30  27  86 N5        29.98F WCI  25
STANLEY          N/A     21  18  88 CALM      29.93F
SALMON         CLOUDY    27  25  93 CALM      29.99F
CHALLIS        CLOUDY    25  24  96 CALM      29.97F
$$

IDZ002-004-006-007-026-171000-
NORTHERN IDAHO


CITY           SKY/WX    TMP DP  RH WIND       PRES   REMARKS
LEWISTON       MOCLDY    37  33  85 CALM      29.96S
LOWELL           N/A     34  32  92 NW3       30.02F
COEUR D`ALENE  CLOUDY    34  28  80 NE8       29.95F WCI  27
MULLAN PASS    CLOUDY    26  24  92 S3        29.86F
$$


USA.gov is the U.S. government's official web portal to all federal, state and local government web resources and services.